Lexington Weather

Lexington, Massachusetts, USA

79°F
8/3/2020 8:25am 
  • Lexington Conditions: Few Clouds
  • Temperature: 78.6°F / 25.9°CWarmer 2.0°F than last hour.
  • Dew Point: 72.3°FDecreased 1.5°Fsince last hour.
  • Relative Humidity: 81%Decreased 10.0% since last hour.
  • Wind: Wind from SSE SSE 3 mph, 10-min avg: 3 mph, gust: 8 mph
  • Barometer: 29.86 inRising 0.02  inHg/hr Rising Slowly
  • Visibility: 10 miles
  • Rain Today: 0.00 in
  •   

Regional Weather Roundup
for Boston / Norton, MA

        
000
ASUS41 KBOX 030504
RWRBOX

REGIONAL WEATHER ROUNDUP
NATIONAL WEATHER SERVICE BOSTON/NORTON MA
100 AM EDT MON AUG 03 2020

NOTE:  "FAIR" INDICATES FEW OR NO CLOUDS BELOW 12,000 FEET WITH NO 
SIGNIFICANT WEATHER AND/OR OBSTRUCTIONS TO VISIBILITY.

MAZALL-030600-
EASTERN MASSACHUSETTS
  
CITY           SKY/WX    TMP DP  RH WIND       PRES   REMARKS
BOSTON         MOCLDY    77  73  87 S12       29.87F                  
BEVERLY        CLOUDY    74  72  93 SE6       29.87F                  
LAWRENCE       MOCLDY    77  75  93 S5        29.88F                  
BEDFORD        CLEAR     77  75  93 S7        29.86F                  
BLUE HILL      NOT AVBL                                               
NORWOOD        CLEAR     80  74  81 S7        29.87F                  
MARSHFIELD     CLOUDY    81  77  89 S9G17     29.89F                  
PLYMOUTH       CLOUDY    79  75  87 SW10      29.91F                  
TAUNTON        CLOUDY    81  75  82 SW10G20   29.90S                  
NEW BEDFORD    CLOUDY   N/A N/A N/A SW13      29.91S                  
$$

MAZALL-030600-
CAPE COD AND THE ISLANDS
  
CITY           SKY/WX    TMP DP  RH WIND       PRES   REMARKS
FALMOUTH       CLOUDY    79  77  94 S16       29.93F                  
HYANNIS        CLOUDY    78  76  93 S12G20    29.92F                  
CHATHAM        CLOUDY    76  74  93 SW9G20    29.95F                  
PROVINCETOWN   CLOUDY    77  75  93 S16       29.92S                  
NANTUCKET      CLOUDY    73  72  96 S15       29.95F FOG              
MARTHAS VNYRD  CLOUDY    77  75  93 S14       29.93F                  
$$
 
MAZALL-030600-
CENTRAL AND WESTERN MASSACHUSETTS
  
CITY           SKY/WX    TMP DP  RH WIND       PRES   REMARKS
WORCESTER      CLOUDY    76  73  91 SW10      29.91F                  
FITCHBURG      CLOUDY    77  73  87 SE3       29.87F                  
ORANGE         MOCLDY    78  75  90 S7        29.88F                  
SPRINGFIELD    MOCLDY    78  75  93 S7        29.86S                  
WESTFIELD      MOCLDY    77  76  96 S8        29.86S                  
NORTH ADAMS    PTCLDY    77  72  84 CALM      29.85S                  
PITTSFIELD     LGT RAIN  77  71  82 SW8       29.88S                  
$$
 
RIZALL-030600-
RHODE ISLAND
  
CITY           SKY/WX    TMP DP  RH WIND       PRES   REMARKS
PROVIDENCE     PTCLDY    80  76  87 SW13      29.90F                  
NEWPORT        CLOUDY    77  75  93 S8        29.92S FOG              
BLOCK ISLAND   CLEAR     75  73  93 SW14      29.93R                  
SMITHFIELD     PTCLDY    77  76  96 VRB6      29.91S                  
WESTERLY       CLEAR     78  73  84 SW9       29.91S                  
$$
 
CTZALL-030600-
CONNECTICUT
  
CITY           SKY/WX    TMP DP  RH WIND       PRES   REMARKS
BRADLEY INTL   PTCLDY    77  74  90 S6        29.86S                  
HARTFORD       CLEAR     80  74  81 S8        29.86S                  
BRIDGEPORT     CLEAR     80  75  84 SW7       29.88S                  
DANBURY        CLEAR     79  74  84 S8        29.90S                  
GROTON         CLEAR     75  73  93 SW5       29.89F                  
NEW HAVEN      PTCLDY    80  76  87 SW3       29.89S                  
CHESTER        NOT AVBL                                               
MERIDEN        CLEAR     78  74  87 S3        29.88S                  
WILLIMANTIC    CLEAR     79  74  84 S8        29.89S                  
OXFORD         CLEAR     77  75  93 S6        29.92R                  
$$

MEZ002-015-021-024-NHZ003-005-008-011-012-014-VTZ005-008-030600-
NORTHERN NEW ENGLAND
  
CITY           SKY/WX    TMP DP  RH WIND       PRES   REMARKS
PORTLAND ME    CLOUDY    74  70  87 S13       29.88F                  
BANGOR ME      CLOUDY    70  66  87 S12       29.91F                  
CONCORD NH     LGT RAIN  77  73  87 SE7       29.85F                  
MANCHESTER NH  CLOUDY    79  74  84 S9        29.84F                  
NASHUA NH      CLOUDY    77  77 100 VRB3      29.87F                  
PORTSMOUTH NH  CLOUDY    74  71  91 SE6       29.86                   
JAFFREY NH     MOCLDY    76  73  91 SW7       29.89F                  
KEENE NH       CLOUDY    75  73  93 SE6       29.86S                  
BURLINGTON VT  MOCLDY    75  70  84 S6        29.75R                  
MT. WASHINGTON LGT RAIN  57  57 100 SW41G52     N/A  VSB 1/16         
$$

NYZ052-076-030600-
EASTERN NEW YORK
  
CITY           SKY/WX    TMP DP  RH WIND       PRES   REMARKS
ALBANY         PTCLDY    75  73  93 S10       29.82S                  
NEW YORK CITY  PTCLDY    85  73  67 S12       29.89R HX  91           
$$
 
ANZALL-030600-
MARINE OBSERVATIONS
  
STATION/POSITION TIME  TEMP    WIND        PRES    VSBY  WAVE
                       AIR SEA DIR/SP/G                  HT/PER
                 (UTC) (F)     (DEG/KT/KT) (MB)    (MI)  (FT/S)
BOSTON BUOY      0450   70 68  160/ 10/ 10 1010.6F         3/ 5
BUZZARDS BAY     0400          200/ 19/ 22 1013.9F
NANTUCKET SOUND  0440      76  180/ 14/ 19 1012.9F
MASS BAY-STELLWA NOT AVBL
ISLE OF SHOALS   0400   71     160/ 23/ 25 1011.2F
S OF BLOCK IS    0426      75                N/A           5/ 6
$$

......................KEY.........................
  SKY/WX - SKY CONDITION/PRESENT WEATHER
  TMP    - TEMPERATURE IN FAHRENHEIT
  DWPT   - DEWPOINT IN FAHRENHEIT
  RH     - RELATIVE HUMIDITY IN PERCENT
  WIND   - DIRECTION AND SPEED IN MPH
  PRES   - MEAN SEA LEVEL PRESSURE IN INCHES OF HG
  WCI    - WIND CHILL INDEX
  VSB    - VISIBILITY IN MILES
  HX     - HEAT INDEX
  TC     - TEMPERATURE IN CELSIUS
  VRB    - VARIABLE WIND DIRECTION
  N/A    - NOT AVAILABLE
  
      

Other recent Regional Weather Roundups

Mon Aug 3, 8:04am

Mon Aug 3, 7:04am

Mon Aug 3, 6:04am

Mon Aug 3, 5:04am

Mon Aug 3, 4:04am

Mon Aug 3, 3:04am

Mon Aug 3, 2:04am

Mon Aug 3, 12:05am

Sun Aug 2, 11:04pm

Sun Aug 2, 10:04pm

Sun Aug 2, 9:04pm

Sun Aug 2, 8:04pm

Sun Aug 2, 7:04pm

Sun Aug 2, 6:04pm

Sun Aug 2, 5:04pm

Sun Aug 2, 4:05pm

Sun Aug 2, 3:04pm

Sun Aug 2, 2:05pm

Sun Aug 2, 1:04pm

Sun Aug 2, 12:04pm

Sun Aug 2, 11:04am

Sun Aug 2, 10:04am

Sun Aug 2, 9:05am

Sun Aug 2, 8:05am

Sun Aug 2, 7:04am

Sun Aug 2, 6:04am

Sun Aug 2, 5:04am

Sun Aug 2, 4:05am

Sun Aug 2, 3:04am

Sun Aug 2, 2:04am

Sun Aug 2, 1:04am

Sun Aug 2, 12:05am

Sat Aug 1, 11:04pm

Sat Aug 1, 10:04pm

Sat Aug 1, 9:04pm

Sat Aug 1, 8:05pm

Sat Aug 1, 7:04pm

Sat Aug 1, 6:04pm

Sat Aug 1, 5:05pm

Sat Aug 1, 4:05pm

Sat Aug 1, 3:04pm

Sat Aug 1, 2:04pm

Sat Aug 1, 1:04pm

Sat Aug 1, 12:04pm

Sat Aug 1, 11:05am

Sat Aug 1, 10:05am

Sat Aug 1, 9:04am

Sat Aug 1, 8:04am

Sat Aug 1, 7:04am

Sat Aug 1, 6:04am

Sat Aug 1, 5:04am

Sat Aug 1, 4:05am

Sat Aug 1, 3:04am

Sat Aug 1, 2:04am

Sat Aug 1, 1:04am

Sat Aug 1, 12:05am

Fri Jul 31, 11:05pm

Fri Jul 31, 10:04pm

Fri Jul 31, 9:04pm

Fri Jul 31, 8:05pm

Fri Jul 31, 7:05pm

Fri Jul 31, 6:04pm

Fri Jul 31, 5:04pm

Fri Jul 31, 4:05pm

Fri Jul 31, 3:04pm

Fri Jul 31, 2:05pm

Fri Jul 31, 1:04pm

Fri Jul 31, 12:04pm

Fri Jul 31, 11:04am

Fri Jul 31, 10:04am

Fri Jul 31, 9:04am

Fri Jul 31, 8:04am

Fri Jul 31, 7:04am

Fri Jul 31, 6:04am

Fri Jul 31, 5:04am

Fri Jul 31, 4:04am

Fri Jul 31, 3:04am

Fri Jul 31, 2:04am

Fri Jul 31, 1:05am

Fri Jul 31, 12:04am

Thu Jul 30, 11:04pm

Thu Jul 30, 10:04pm

Thu Jul 30, 9:04pm

Thu Jul 30, 8:04pm

Thu Jul 30, 7:05pm

Thu Jul 30, 6:04pm

Thu Jul 30, 5:04pm

Thu Jul 30, 4:05pm

Thu Jul 30, 3:04pm

Thu Jul 30, 2:05pm

Thu Jul 30, 1:04pm

Thu Jul 30, 12:04pm

Thu Jul 30, 11:04am

Thu Jul 30, 10:05am

Thu Jul 30, 9:04am

Thu Jul 30, 8:04am

Thu Jul 30, 7:04am

Thu Jul 30, 6:04am

Thu Jul 30, 5:04am

Thu Jul 30, 4:04am

Thu Jul 30, 3:04am

Thu Jul 30, 2:04am

Thu Jul 30, 1:04am

Thu Jul 30, 12:04am

Wed Jul 29, 11:04pm

Wed Jul 29, 10:04pm

Wed Jul 29, 9:04pm

Wed Jul 29, 8:04pm

Wed Jul 29, 7:05pm

Wed Jul 29, 6:05pm

Wed Jul 29, 5:04pm

Wed Jul 29, 4:04pm

Wed Jul 29, 3:04pm

Wed Jul 29, 2:04pm

Wed Jul 29, 1:05pm

Wed Jul 29, 12:05pm

Wed Jul 29, 11:04am

Wed Jul 29, 10:04am

Wed Jul 29, 9:04am

Wed Jul 29, 8:04am

Wed Jul 29, 7:04am

Wed Jul 29, 6:04am

Wed Jul 29, 5:04am

Wed Jul 29, 4:04am

Wed Jul 29, 3:04am

Wed Jul 29, 2:04am

Wed Jul 29, 1:04am

Wed Jul 29, 12:05am

Tue Jul 28, 11:05pm

Tue Jul 28, 10:05pm

Tue Jul 28, 9:04pm

Tue Jul 28, 8:04pm

Tue Jul 28, 7:04pm

Tue Jul 28, 6:04pm

Tue Jul 28, 5:04pm

Tue Jul 28, 4:05pm

Tue Jul 28, 3:05pm

Tue Jul 28, 2:04pm

Tue Jul 28, 1:05pm

Tue Jul 28, 12:04pm

Tue Jul 28, 11:04am

Tue Jul 28, 10:04am

Tue Jul 28, 9:04am

Tue Jul 28, 8:04am

Tue Jul 28, 7:04am

Tue Jul 28, 6:04am

Tue Jul 28, 5:04am

Tue Jul 28, 4:04am

Tue Jul 28, 3:04am

Tue Jul 28, 2:04am

Tue Jul 28, 1:04am

Tue Jul 28, 12:05am

Mon Jul 27, 11:04pm

Mon Jul 27, 10:05pm

Mon Jul 27, 9:05pm

Mon Jul 27, 8:04pm

Mon Jul 27, 7:04pm

Mon Jul 27, 6:05pm

Mon Jul 27, 5:05pm

Mon Jul 27, 4:04pm

Mon Jul 27, 3:04pm

Mon Jul 27, 2:04pm

Mon Jul 27, 1:04pm

Mon Jul 27, 12:04pm

Mon Jul 27, 11:04am

Mon Jul 27, 10:04am

Mon Jul 27, 9:04am

Meta data:

ID: 8f677876-c6e2-48ec-b642-b219de2c231b
Link: https://api.weather.gov/products/8f677876-c6e2-48ec-b642-b219de2c231b